Year,Month,Day,Hour,Minute,Value (Times are PST for temperature in C)
2009,03,23,00,00,3.80
2009,03,23,00,01,3.80
2009,03,23,00,02,3.70
2009,03,23,00,03,3.70
2009,03,23,00,04,3.70
2009,03,23,00,05,3.70
2009,03,23,00,06,3.70
2009,03,23,00,07,3.70
2009,03,23,00,08,3.70
2009,03,23,00,09,3.70
2009,03,23,00,10,3.70
2009,03,23,00,11,3.70
2009,03,23,00,12,3.70
2009,03,23,00,13,3.70
2009,03,23,00,14,3.70
2009,03,23,00,15,3.70
2009,03,23,00,16,3.70
2009,03,23,00,17,3.80
2009,03,23,00,18,3.80
2009,03,23,00,19,3.80
2009,03,23,00,20,3.80
2009,03,23,00,21,3.80
2009,03,23,00,22,3.80
2009,03,23,00,23,3.70
2009,03,23,00,24,3.70
2009,03,23,00,25,3.70
2009,03,23,00,26,3.70
2009,03,23,00,27,3.70
2009,03,23,00,28,3.70
2009,03,23,00,29,3.70
2009,03,23,00,30,3.70
2009,03,23,00,31,3.70
2009,03,23,00,32,3.70
2009,03,23,00,33,3.80
2009,03,23,00,34,3.80
2009,03,23,00,35,3.80
2009,03,23,00,36,3.80
2009,03,23,00,37,3.80
2009,03,23,00,38,3.80
2009,03,23,00,39,3.90
2009,03,23,00,40,3.90
2009,03,23,00,41,3.90
2009,03,23,00,42,4.00
2009,03,23,00,43,4.00
2009,03,23,00,44,4.00
2009,03,23,00,45,3.90
2009,03,23,00,46,3.90
2009,03,23,00,47,3.90
2009,03,23,00,48,3.90
2009,03,23,00,49,3.80
2009,03,23,00,50,3.80
2009,03,23,00,51,3.80
2009,03,23,00,52,3.80
2009,03,23,00,53,3.80
2009,03,23,00,54,3.80
2009,03,23,00,55,3.80
2009,03,23,00,56,3.80
2009,03,23,00,57,3.80
2009,03,23,00,58,3.80
2009,03,23,00,59,3.80
2009,03,23,01,00,3.80
2009,03,23,01,01,3.80
2009,03,23,01,02,3.80
2009,03,23,01,03,3.80
2009,03,23,01,04,3.80
2009,03,23,01,05,3.80
2009,03,23,01,06,3.80
2009,03,23,01,07,3.80
2009,03,23,01,08,3.80
2009,03,23,01,09,3.80
2009,03,23,01,10,3.80
2009,03,23,01,11,3.80
2009,03,23,01,12,3.80
2009,03,23,01,13,3.80
2009,03,23,01,14,3.70
2009,03,23,01,15,3.70
2009,03,23,01,16,3.70
2009,03,23,01,17,3.80
2009,03,23,01,18,3.80
2009,03,23,01,19,3.80
2009,03,23,01,20,3.80
2009,03,23,01,21,3.80
2009,03,23,01,22,3.80
2009,03,23,01,23,3.80
2009,03,23,01,24,3.80
2009,03,23,01,25,3.90
2009,03,23,01,26,3.90
2009,03,23,01,27,3.90
2009,03,23,01,28,3.90
2009,03,23,01,29,3.90
2009,03,23,01,30,4.00
2009,03,23,01,31,4.00
2009,03,23,01,32,4.00
2009,03,23,01,33,4.10
2009,03,23,01,34,4.10
2009,03,23,01,35,4.10
2009,03,23,01,36,4.10
2009,03,23,01,37,4.10
2009,03,23,01,38,4.10
2009,03,23,01,39,4.00
2009,03,23,01,40,4.00
2009,03,23,01,41,4.00
2009,03,23,01,42,4.00
2009,03,23,01,43,4.00
2009,03,23,01,44,4.00
2009,03,23,01,45,3.90
2009,03,23,01,46,3.90
2009,03,23,01,47,3.90
2009,03,23,01,48,3.90
2009,03,23,01,49,3.90
2009,03,23,01,50,3.90
2009,03,23,01,51,3.90
2009,03,23,01,52,3.90
2009,03,23,01,53,3.90
2009,03,23,01,54,3.80
2009,03,23,01,55,3.70
2009,03,23,01,56,3.70
2009,03,23,01,57,3.60
2009,03,23,01,58,3.60
2009,03,23,01,59,3.60
2009,03,23,02,00,3.60
2009,03,23,02,01,3.50
2009,03,23,02,02,3.50
2009,03,23,02,03,3.50
2009,03,23,02,04,3.60
2009,03,23,02,05,3.60
2009,03,23,02,06,3.60
2009,03,23,02,07,3.60
2009,03,23,02,08,3.60
2009,03,23,02,09,3.60
2009,03,23,02,10,3.60
2009,03,23,02,11,3.60
2009,03,23,02,12,3.60
2009,03,23,02,13,3.60
2009,03,23,02,14,3.60
2009,03,23,02,15,3.60
2009,03,23,02,16,3.60
2009,03,23,02,17,3.60
2009,03,23,02,18,3.60
2009,03,23,02,19,3.60
2009,03,23,02,20,3.60
2009,03,23,02,21,3.60
2009,03,23,02,22,3.60
2009,03,23,02,23,3.50
2009,03,23,02,24,3.50
2009,03,23,02,25,3.50
2009,03,23,02,26,3.40
2009,03,23,02,27,3.40
2009,03,23,02,28,3.40
2009,03,23,02,29,3.30
2009,03,23,02,30,3.30
2009,03,23,02,31,3.30
2009,03,23,02,32,3.30
2009,03,23,02,33,3.30
2009,03,23,02,34,3.30
2009,03,23,02,35,3.30
2009,03,23,02,36,3.40
2009,03,23,02,37,3.40
2009,03,23,02,38,3.40
2009,03,23,02,39,3.40
2009,03,23,02,40,3.40
2009,03,23,02,41,3.40
2009,03,23,02,42,3.40
2009,03,23,02,43,3.40
2009,03,23,02,44,3.40
2009,03,23,02,45,3.40
2009,03,23,02,46,3.40
2009,03,23,02,47,3.40
2009,03,23,02,48,3.40
2009,03,23,02,49,3.40
2009,03,23,02,50,3.40
2009,03,23,02,51,3.40
2009,03,23,02,52,3.40
2009,03,23,02,53,3.40
2009,03,23,02,54,3.40
2009,03,23,02,55,3.40
2009,03,23,02,56,3.40
2009,03,23,02,57,3.40
2009,03,23,02,58,3.40
2009,03,23,02,59,3.40
2009,03,23,03,00,3.40
2009,03,23,03,01,3.40
2009,03,23,03,02,3.40
2009,03,23,03,03,3.40
2009,03,23,03,04,3.40
2009,03,23,03,05,3.40
2009,03,23,03,06,3.40
2009,03,23,03,07,3.40
2009,03,23,03,08,3.30
2009,03,23,03,09,3.30
2009,03,23,03,10,3.30
2009,03,23,03,11,3.30
2009,03,23,03,12,3.30
2009,03,23,03,13,3.30
2009,03,23,03,14,3.30
2009,03,23,03,15,3.30
2009,03,23,03,16,3.30
2009,03,23,03,17,3.20
2009,03,23,03,18,3.20
2009,03,23,03,19,3.20
2009,03,23,03,20,3.20
2009,03,23,03,21,3.20
2009,03,23,03,22,3.20
2009,03,23,03,23,3.10
2009,03,23,03,24,3.10
2009,03,23,03,25,3.00
2009,03,23,03,26,3.00
2009,03,23,03,27,3.00
2009,03,23,03,28,2.90
2009,03,23,03,29,2.90
2009,03,23,03,30,2.90
2009,03,23,03,31,2.90
2009,03,23,03,32,2.90
2009,03,23,03,33,2.90
2009,03,23,03,34,2.90
2009,03,23,03,35,2.90
2009,03,23,03,36,2.90
2009,03,23,03,37,2.90
2009,03,23,03,38,2.90
2009,03,23,03,39,2.90
2009,03,23,03,40,3.00
2009,03,23,03,41,2.90
2009,03,23,03,42,2.90
2009,03,23,03,43,2.90
2009,03,23,03,44,2.90
2009,03,23,03,45,2.90
2009,03,23,03,46,2.90
2009,03,23,03,47,2.90
2009,03,23,03,48,2.90
2009,03,23,03,49,2.80
2009,03,23,03,50,2.90
2009,03,23,03,51,2.90
2009,03,23,03,52,2.80
2009,03,23,03,53,2.90
2009,03,23,03,54,2.90
2009,03,23,03,55,2.90
2009,03,23,03,56,2.90
2009,03,23,03,57,2.90
2009,03,23,03,58,2.90
2009,03,23,03,59,2.90
2009,03,23,04,00,2.90
2009,03,23,04,01,2.90
2009,03,23,04,02,3.00
2009,03,23,04,03,3.00
2009,03,23,04,04,3.00
2009,03,23,04,05,3.00
2009,03,23,04,06,3.00
2009,03,23,04,07,3.00
2009,03,23,04,08,3.00
2009,03,23,04,09,3.00
2009,03,23,04,10,3.00
2009,03,23,04,11,2.90
2009,03,23,04,12,3.00
2009,03,23,04,13,3.00
2009,03,23,04,14,3.00
2009,03,23,04,15,2.90
2009,03,23,04,16,2.90
2009,03,23,04,17,2.90
2009,03,23,04,18,2.90
2009,03,23,04,19,2.90
2009,03,23,04,20,2.90
2009,03,23,04,21,2.90
2009,03,23,04,22,2.90
2009,03,23,04,23,2.90
2009,03,23,04,24,2.90
2009,03,23,04,25,2.80
2009,03,23,04,26,2.80
2009,03,23,04,27,2.80
2009,03,23,04,28,2.80
2009,03,23,04,29,2.80
2009,03,23,04,30,2.80
2009,03,23,04,31,2.80
2009,03,23,04,32,2.80
2009,03,23,04,33,2.80
2009,03,23,04,34,2.70
2009,03,23,04,35,2.70
2009,03,23,04,36,2.70
2009,03,23,04,37,2.70
2009,03,23,04,38,2.70
2009,03,23,04,39,2.70
2009,03,23,04,40,2.70
2009,03,23,04,41,2.70
2009,03,23,04,42,2.70
2009,03,23,04,43,2.80
2009,03,23,04,44,2.70
2009,03,23,04,45,2.80
2009,03,23,04,46,2.80
2009,03,23,04,47,2.80
2009,03,23,04,48,2.80
2009,03,23,04,49,2.80
2009,03,23,04,50,2.80
2009,03,23,04,51,2.80
2009,03,23,04,52,2.80
2009,03,23,04,53,2.80
2009,03,23,04,54,2.80
2009,03,23,04,55,2.80
2009,03,23,04,56,2.80
2009,03,23,04,57,2.90
2009,03,23,04,58,2.90
2009,03,23,04,59,2.90
2009,03,23,05,00,2.90
2009,03,23,05,01,2.90
2009,03,23,05,02,2.90
2009,03,23,05,03,2.90
2009,03,23,05,04,2.90
2009,03,23,05,05,2.90
2009,03,23,05,06,2.90
2009,03,23,05,07,2.90
2009,03,23,05,08,2.90
2009,03,23,05,09,2.90
2009,03,23,05,10,2.90
2009,03,23,05,11,2.90
2009,03,23,05,12,2.90
2009,03,23,05,13,2.80
2009,03,23,05,14,2.80
2009,03,23,05,15,2.80
2009,03,23,05,16,2.80
2009,03,23,05,17,2.90
2009,03,23,05,18,2.90
2009,03,23,05,19,2.90
2009,03,23,05,20,2.90
2009,03,23,05,21,3.00
2009,03,23,05,22,3.10
2009,03,23,05,23,3.10
2009,03,23,05,24,3.10
2009,03,23,05,25,3.20
2009,03,23,05,26,3.20
2009,03,23,05,27,3.20
2009,03,23,05,28,3.30
2009,03,23,05,29,3.30
2009,03,23,05,30,3.30
2009,03,23,05,31,3.40
2009,03,23,05,32,3.40
2009,03,23,05,33,3.40
2009,03,23,05,34,3.40
2009,03,23,05,35,3.40
2009,03,23,05,36,3.40
2009,03,23,05,37,3.40
2009,03,23,05,38,3.40
2009,03,23,05,39,3.40
2009,03,23,05,40,3.40
2009,03,23,05,41,3.40
2009,03,23,05,42,3.30
2009,03,23,05,43,3.30
2009,03,23,05,44,3.20
2009,03,23,05,45,3.20
2009,03,23,05,46,3.20
2009,03,23,05,47,3.10
2009,03,23,05,48,3.10
2009,03,23,05,49,3.10
2009,03,23,05,50,3.10
2009,03,23,05,51,3.10
2009,03,23,05,52,3.00
2009,03,23,05,53,3.00
2009,03,23,05,54,2.90
2009,03,23,05,55,2.90
2009,03,23,05,56,2.80
2009,03,23,05,57,2.70
2009,03,23,05,58,2.70
2009,03,23,05,59,2.60
2009,03,23,06,00,2.60
2009,03,23,06,01,2.50
2009,03,23,06,02,2.40
2009,03,23,06,03,2.40
2009,03,23,06,04,2.30
2009,03,23,06,05,2.30
2009,03,23,06,06,2.20
2009,03,23,06,07,2.20
2009,03,23,06,08,2.20
2009,03,23,06,09,2.20
2009,03,23,06,10,2.20
2009,03,23,06,11,2.20
2009,03,23,06,12,2.20
2009,03,23,06,13,2.20
2009,03,23,06,14,2.20
2009,03,23,06,15,2.20
2009,03,23,06,16,2.20
2009,03,23,06,17,2.30
2009,03,23,06,18,2.30
2009,03,23,06,19,2.30
2009,03,23,06,20,2.30
2009,03,23,06,21,2.30
2009,03,23,06,22,2.30
2009,03,23,06,23,2.30
2009,03,23,06,24,2.30
2009,03,23,06,25,2.30
2009,03,23,06,26,2.30
2009,03,23,06,27,2.30
2009,03,23,06,28,2.30
2009,03,23,06,29,2.30
2009,03,23,06,30,2.30
2009,03,23,06,31,2.30
2009,03,23,06,32,2.30
2009,03,23,06,33,2.30
2009,03,23,06,34,2.30
2009,03,23,06,35,2.30
2009,03,23,06,36,2.30
2009,03,23,06,37,2.30
2009,03,23,06,38,2.30
2009,03,23,06,39,2.30
2009,03,23,06,40,2.30
2009,03,23,06,41,2.30
2009,03,23,06,42,2.30
2009,03,23,06,43,2.30
2009,03,23,06,44,2.30
2009,03,23,06,45,2.40
2009,03,23,06,46,2.40
2009,03,23,06,47,2.40
2009,03,23,06,48,2.40
2009,03,23,06,49,2.40
2009,03,23,06,50,2.40
2009,03,23,06,51,2.50
2009,03,23,06,52,2.40
2009,03,23,06,53,2.40
2009,03,23,06,54,2.40
2009,03,23,06,55,2.40
2009,03,23,06,56,2.50
2009,03,23,06,57,2.50
2009,03,23,06,58,2.50
2009,03,23,06,59,2.50
2009,03,23,07,00,2.50
2009,03,23,07,01,2.50
2009,03,23,07,02,2.50
2009,03,23,07,03,2.40
2009,03,23,07,04,2.40
2009,03,23,07,05,2.40
2009,03,23,07,06,2.40
2009,03,23,07,07,2.30
2009,03,23,07,08,2.30
2009,03,23,07,09,2.30
2009,03,23,07,10,2.30
2009,03,23,07,11,2.30
2009,03,23,07,12,2.30
2009,03,23,07,13,2.30
2009,03,23,07,14,2.30
2009,03,23,07,15,2.30
2009,03,23,07,16,2.30
2009,03,23,07,17,2.30
2009,03,23,07,18,2.30
2009,03,23,07,19,2.20
2009,03,23,07,20,2.20
2009,03,23,07,21,2.20
2009,03,23,07,22,2.20
2009,03,23,07,23,2.10
2009,03,23,07,24,2.10
2009,03,23,07,25,2.10
2009,03,23,07,26,2.10
2009,03,23,07,27,2.10
2009,03,23,07,28,2.10
2009,03,23,07,29,2.10
2009,03,23,07,30,2.10
2009,03,23,07,31,2.10
2009,03,23,07,32,2.10
2009,03,23,07,33,2.10
2009,03,23,07,34,2.00
2009,03,23,07,35,2.00
2009,03,23,07,36,2.00
2009,03,23,07,37,2.00
2009,03,23,07,38,1.90
2009,03,23,07,39,1.90
2009,03,23,07,40,1.90
2009,03,23,07,41,1.90
2009,03,23,07,42,1.90
2009,03,23,07,43,1.90
2009,03,23,07,44,1.90
2009,03,23,07,45,1.90
2009,03,23,07,46,1.90
2009,03,23,07,47,1.90
2009,03,23,07,48,1.90
2009,03,23,07,49,2.00
2009,03,23,07,50,2.00
2009,03,23,07,51,2.00
2009,03,23,07,52,2.00
2009,03,23,07,53,2.00
2009,03,23,07,54,2.00
2009,03,23,07,55,2.00
2009,03,23,07,56,2.00
2009,03,23,07,57,2.00
2009,03,23,07,58,2.00
2009,03,23,07,59,2.00
2009,03,23,08,00,2.00
2009,03,23,08,01,2.10
2009,03,23,08,02,2.10
2009,03,23,08,03,2.10
2009,03,23,08,04,2.10
2009,03,23,08,05,2.10
2009,03,23,08,06,2.10
2009,03,23,08,07,2.10
2009,03,23,08,08,2.20
2009,03,23,08,09,2.20
2009,03,23,08,10,2.20
2009,03,23,08,11,2.20
2009,03,23,08,12,2.20
2009,03,23,08,13,2.30
2009,03,23,08,14,2.30
2009,03,23,08,15,2.30
2009,03,23,08,16,2.30
2009,03,23,08,17,2.30
2009,03,23,08,18,2.30
2009,03,23,08,19,2.30
2009,03,23,08,20,2.30
2009,03,23,08,21,2.30
2009,03,23,08,22,2.30
2009,03,23,08,23,2.30
2009,03,23,08,24,2.40
2009,03,23,08,25,2.40
2009,03,23,08,26,2.40
2009,03,23,08,27,2.40
2009,03,23,08,28,2.40
2009,03,23,08,29,2.50
2009,03,23,08,30,2.50
2009,03,23,08,31,2.50
2009,03,23,08,32,2.50
2009,03,23,08,33,2.60
2009,03,23,08,34,2.60
2009,03,23,08,35,2.60
2009,03,23,08,36,2.60
2009,03,23,08,37,2.60
2009,03,23,08,38,2.60
2009,03,23,08,39,2.60
2009,03,23,08,40,2.60
2009,03,23,08,41,2.60
2009,03,23,08,42,2.60
2009,03,23,08,43,2.60
2009,03,23,08,44,2.70
2009,03,23,08,45,2.70
2009,03,23,08,46,2.70
2009,03,23,08,47,2.70
2009,03,23,08,48,2.70
2009,03,23,08,49,2.70
2009,03,23,08,50,2.70
2009,03,23,08,51,2.70
2009,03,23,08,52,2.70
2009,03,23,08,53,2.70
2009,03,23,08,54,2.70
2009,03,23,08,55,2.70
2009,03,23,08,56,2.70
2009,03,23,08,57,2.70
2009,03,23,08,58,2.70
2009,03,23,08,59,2.70
2009,03,23,09,00,2.70
2009,03,23,09,01,2.70
2009,03,23,09,02,2.70
2009,03,23,09,03,2.70
2009,03,23,09,04,2.70
2009,03,23,09,05,2.70
2009,03,23,09,06,2.70
2009,03,23,09,07,2.70
2009,03,23,09,08,2.70
2009,03,23,09,09,2.70
2009,03,23,09,10,2.70
2009,03,23,09,11,2.70
2009,03,23,09,12,2.70
2009,03,23,09,13,2.70
2009,03,23,09,14,2.80
2009,03,23,09,15,2.80
2009,03,23,09,16,2.80
2009,03,23,09,17,2.80
2009,03,23,09,18,2.90
2009,03,23,09,19,2.90
2009,03,23,09,20,3.00
2009,03,23,09,21,3.00
2009,03,23,09,22,3.00
2009,03,23,09,23,3.00
2009,03,23,09,24,3.00
2009,03,23,09,25,3.10
2009,03,23,09,26,3.10
2009,03,23,09,27,3.10
2009,03,23,09,28,3.10
2009,03,23,09,29,3.10
2009,03,23,09,30,3.10
2009,03,23,09,31,3.10
2009,03,23,09,32,3.10
2009,03,23,09,33,3.10
2009,03,23,09,34,3.10
2009,03,23,09,35,3.10
2009,03,23,09,36,3.10
2009,03,23,09,37,3.20
2009,03,23,09,38,3.20
2009,03,23,09,39,3.20
2009,03,23,09,40,3.20
2009,03,23,09,41,3.20
2009,03,23,09,42,3.20
2009,03,23,09,43,3.20
2009,03,23,09,44,3.20
2009,03,23,09,45,3.10
2009,03,23,09,46,3.10
2009,03,23,09,47,3.10
2009,03,23,09,48,3.10
2009,03,23,09,49,3.10
2009,03,23,09,50,3.10
2009,03,23,09,51,3.10
2009,03,23,09,52,3.20
2009,03,23,09,53,3.20
2009,03,23,09,54,3.20
2009,03,23,09,55,3.20
2009,03,23,09,56,3.10
2009,03,23,09,57,3.20
2009,03,23,09,58,3.20
2009,03,23,09,59,3.20
2009,03,23,10,00,3.10
2009,03,23,10,01,3.10
2009,03,23,10,02,3.10
2009,03,23,10,03,3.10
2009,03,23,10,04,3.10
2009,03,23,10,05,3.20
2009,03,23,10,06,3.20
2009,03,23,10,07,3.20
2009,03,23,10,08,3.20
2009,03,23,10,09,3.20
2009,03,23,10,10,3.30
2009,03,23,10,11,3.30
2009,03,23,10,12,3.30
2009,03,23,10,13,3.30
2009,03,23,10,14,3.30
2009,03,23,10,15,3.40
2009,03,23,10,16,3.40
2009,03,23,10,17,3.40
2009,03,23,10,18,3.50
2009,03,23,10,19,3.50
2009,03,23,10,20,3.60
2009,03,23,10,21,3.60
2009,03,23,10,22,3.60
2009,03,23,10,23,3.70
2009,03,23,10,24,3.70
2009,03,23,10,25,3.70
2009,03,23,10,26,3.70
2009,03,23,10,27,3.80
2009,03,23,10,28,3.80
2009,03,23,10,29,3.80
2009,03,23,10,30,3.80
2009,03,23,10,31,3.80
2009,03,23,10,32,3.90
2009,03,23,10,33,3.90
2009,03,23,10,34,3.90
2009,03,23,10,35,3.90
2009,03,23,10,36,3.90
2009,03,23,10,37,4.00
2009,03,23,10,38,4.00
2009,03,23,10,39,4.00
2009,03,23,10,40,4.00
2009,03,23,10,41,3.90
2009,03,23,10,42,3.90
2009,03,23,10,43,3.90
2009,03,23,10,44,3.90
2009,03,23,10,45,3.90
2009,03,23,10,46,3.90
2009,03,23,10,47,3.90
2009,03,23,10,48,3.90
2009,03,23,10,49,3.90
2009,03,23,10,50,3.90
2009,03,23,10,51,3.90
2009,03,23,10,52,3.80
2009,03,23,10,53,3.80
2009,03,23,10,54,3.80
2009,03,23,10,55,3.90
2009,03,23,10,56,3.80
2009,03,23,10,57,3.90
2009,03,23,10,58,3.90
2009,03,23,10,59,3.90
2009,03,23,11,00,3.90
2009,03,23,11,01,3.90
2009,03,23,11,02,3.90
2009,03,23,11,03,3.90
2009,03,23,11,04,3.90
2009,03,23,11,05,3.90
2009,03,23,11,06,3.90
2009,03,23,11,07,3.90
2009,03,23,11,08,3.80
2009,03,23,11,09,3.80
2009,03,23,11,10,3.80
2009,03,23,11,11,3.80
2009,03,23,11,12,3.80
2009,03,23,11,13,3.70
2009,03,23,11,14,3.70
2009,03,23,11,15,3.70
2009,03,23,11,16,3.70
2009,03,23,11,17,3.60
2009,03,23,11,18,3.60
2009,03,23,11,19,3.60
2009,03,23,11,20,3.60
2009,03,23,11,21,3.50
2009,03,23,11,22,3.50
2009,03,23,11,23,3.50
2009,03,23,11,24,3.50
2009,03,23,11,25,3.50
2009,03,23,11,26,3.50
2009,03,23,11,27,3.50
2009,03,23,11,28,3.50
2009,03,23,11,29,3.50
2009,03,23,11,30,3.50
2009,03,23,11,31,3.50
2009,03,23,11,32,3.50
2009,03,23,13,47,3.70
2009,03,23,13,48,3.70
2009,03,23,13,49,3.70
2009,03,23,13,50,3.70
2009,03,23,13,51,3.70
2009,03,23,13,52,3.70
2009,03,23,13,53,3.70
2009,03,23,13,54,3.80
2009,03,23,13,55,3.80
2009,03,23,13,56,3.80
2009,03,23,13,57,3.80
2009,03,23,13,58,3.80
2009,03,23,13,59,3.80
2009,03,23,14,00,3.80
2009,03,23,14,01,3.80
2009,03,23,14,02,3.80
2009,03,23,14,03,3.80
2009,03,23,14,04,3.80
2009,03,23,14,05,3.80
2009,03,23,14,06,3.90
2009,03,23,14,07,3.90
2009,03,23,14,08,3.90
2009,03,23,14,09,4.00
2009,03,23,14,10,4.00
2009,03,23,14,11,4.00
2009,03,23,14,12,4.00
2009,03,23,14,13,4.00
2009,03,23,14,14,4.00
2009,03,23,14,15,4.00
2009,03,23,14,16,4.00
2009,03,23,14,17,4.00
2009,03,23,14,18,4.10
2009,03,23,14,19,4.10
2009,03,23,14,20,4.10
2009,03,23,14,21,4.10
2009,03,23,14,22,4.20
2009,03,23,14,23,4.20
2009,03,23,14,24,4.20
2009,03,23,14,25,4.30
2009,03,23,14,26,4.30
2009,03,23,14,27,4.30
2009,03,23,14,28,4.30
2009,03,23,14,29,4.30
2009,03,23,14,30,4.30
2009,03,23,14,31,4.30
2009,03,23,14,32,4.30
2009,03,23,14,33,4.30
2009,03,23,14,34,4.30
2009,03,23,14,35,4.30
2009,03,23,14,36,4.30
2009,03,23,14,37,4.30
2009,03,23,14,38,4.30
2009,03,23,14,39,4.40
2009,03,23,14,40,4.40
2009,03,23,14,41,4.40
2009,03,23,14,42,4.30
2009,03,23,14,43,4.40
2009,03,23,14,44,4.40
2009,03,23,14,45,4.40
2009,03,23,14,46,4.40
2009,03,23,14,47,4.50
2009,03,23,14,48,4.50
2009,03,23,14,49,4.60
2009,03,23,14,50,4.70
2009,03,23,14,51,4.70
2009,03,23,14,52,4.80
2009,03,23,14,53,4.80
2009,03,23,14,54,4.90
2009,03,23,14,55,4.90
2009,03,23,14,56,5.00
2009,03,23,14,57,5.10
2009,03,23,14,58,5.00
2009,03,23,14,59,5.10
2009,03,23,15,00,5.10
2009,03,23,15,01,5.10
2009,03,23,15,02,5.10
2009,03,23,15,03,5.10
2009,03,23,15,04,5.10
2009,03,23,15,05,5.10
2009,03,23,15,06,5.10
2009,03,23,15,07,5.10
2009,03,23,15,08,5.10
2009,03,23,15,09,5.10
2009,03,23,15,10,5.10
2009,03,23,15,11,5.10
2009,03,23,15,12,5.10
2009,03,23,15,13,5.10
2009,03,23,15,14,5.10
2009,03,23,15,15,5.10
2009,03,23,15,16,5.10
2009,03,23,15,17,5.10
2009,03,23,15,18,5.10
2009,03,23,15,19,5.10
2009,03,23,15,20,5.10
2009,03,23,15,21,5.10
2009,03,23,15,22,5.10
2009,03,23,15,23,5.00
2009,03,23,15,24,5.00
2009,03,23,15,25,5.00
2009,03,23,15,26,5.00
2009,03,23,15,27,5.00
2009,03,23,15,28,5.00
2009,03,23,15,29,5.00
2009,03,23,15,30,5.00
2009,03,23,15,31,4.90
2009,03,23,15,32,4.90
2009,03,23,15,33,4.80
2009,03,23,15,34,4.80
2009,03,23,15,35,4.80
2009,03,23,15,36,4.80
2009,03,23,15,37,4.80
2009,03,23,15,38,4.80
2009,03,23,15,39,4.80
2009,03,23,15,40,4.80
2009,03,23,15,41,4.80
2009,03,23,15,42,4.80
2009,03,23,15,43,4.80
2009,03,23,15,44,4.80
2009,03,23,15,45,4.80
2009,03,23,15,46,4.80
2009,03,23,15,47,4.90
2009,03,23,15,48,4.90
2009,03,23,15,49,4.90
2009,03,23,15,50,4.90
2009,03,23,15,51,4.90
2009,03,23,15,52,4.90
2009,03,23,15,53,4.90
2009,03,23,15,54,4.90
2009,03,23,15,55,4.90
2009,03,23,15,56,4.80
2009,03,23,15,57,4.80
2009,03,23,15,58,4.80
2009,03,23,15,59,4.80
2009,03,23,16,00,4.70
2009,03,23,16,01,4.70
2009,03,23,16,02,4.70
2009,03,23,16,03,4.70
2009,03,23,16,04,4.60
2009,03,23,16,05,4.60
2009,03,23,16,06,4.60
2009,03,23,16,07,4.60
2009,03,23,16,08,4.60
2009,03,23,16,09,4.60
2009,03,23,16,10,4.60
2009,03,23,16,11,4.60
2009,03,23,16,12,4.60
2009,03,23,16,13,4.60
2009,03,23,16,14,4.60
2009,03,23,16,15,4.60
2009,03,23,16,16,4.60
2009,03,23,16,17,4.60
2009,03,23,16,18,4.60
2009,03,23,16,19,4.60
2009,03,23,16,20,4.60
2009,03,23,16,21,4.60
2009,03,23,16,22,4.60
2009,03,23,16,23,4.50
2009,03,23,16,24,4.50
2009,03,23,16,25,4.50
2009,03,23,16,26,4.50
2009,03,23,16,27,4.50
2009,03,23,16,28,4.50
2009,03,23,16,29,4.60
2009,03,23,16,30,4.60
2009,03,23,16,31,4.60
2009,03,23,16,32,4.60
2009,03,23,16,33,4.50
2009,03,23,16,34,4.50
2009,03,23,16,35,4.50
2009,03,23,16,36,4.50
2009,03,23,16,37,4.40
2009,03,23,16,38,4.40
2009,03,23,16,39,4.40
2009,03,23,16,40,4.40
2009,03,23,16,41,4.40
2009,03,23,16,42,4.40
2009,03,23,16,43,4.40
2009,03,23,16,44,4.40
2009,03,23,16,45,4.30
2009,03,23,16,46,4.30
2009,03,23,16,47,4.30
2009,03,23,16,48,4.30
2009,03,23,16,49,4.30
2009,03,23,16,50,4.30
2009,03,23,16,51,4.30
2009,03,23,16,52,4.30
2009,03,23,16,53,4.30
2009,03,23,16,54,4.30
2009,03,23,16,55,4.30
2009,03,23,16,56,4.30
2009,03,23,16,57,4.30
2009,03,23,16,58,4.30
2009,03,23,16,59,4.30
2009,03,23,17,00,4.30
2009,03,23,17,01,4.30
2009,03,23,17,02,4.20
2009,03,23,17,03,4.20
2009,03,23,17,04,4.20
2009,03,23,17,05,4.20
2009,03,23,17,06,4.20
2009,03,23,17,07,4.20
2009,03,23,17,08,4.20
2009,03,23,17,09,4.20
2009,03,23,17,10,4.20
2009,03,23,17,11,4.20
2009,03,23,17,12,4.20
2009,03,23,17,13,4.20
2009,03,23,17,14,4.20
2009,03,23,17,15,4.20
2009,03,23,17,16,4.20
2009,03,23,17,17,4.20
2009,03,23,17,18,4.20
2009,03,23,17,19,4.20
2009,03,23,17,20,4.20
2009,03,23,17,21,4.20
2009,03,23,17,22,4.20
2009,03,23,17,23,4.20
2009,03,23,17,24,4.20
2009,03,23,17,25,4.20
2009,03,23,17,26,4.20
2009,03,23,17,27,4.20
2009,03,23,17,28,4.30
2009,03,23,17,29,4.30
2009,03,23,17,30,4.30
2009,03,23,17,31,4.30
2009,03,23,17,32,4.30
2009,03,23,17,33,4.30
2009,03,23,17,34,4.30
2009,03,23,17,35,4.30
2009,03,23,17,36,4.30
2009,03,23,17,37,4.30
2009,03,23,17,38,4.30
2009,03,23,17,39,4.30
2009,03,23,17,40,4.30
2009,03,23,17,41,4.30
2009,03,23,17,42,4.30
2009,03,23,17,43,4.30
2009,03,23,17,44,4.30
2009,03,23,17,45,4.30
2009,03,23,17,46,4.30
2009,03,23,17,47,4.30
2009,03,23,17,48,4.30
2009,03,23,17,49,4.30
2009,03,23,17,50,4.30
2009,03,23,17,51,4.30
2009,03,23,17,52,4.30
2009,03,23,17,53,4.30
2009,03,23,17,54,4.30
2009,03,23,17,55,4.30
2009,03,23,17,56,4.30
2009,03,23,17,57,4.30
2009,03,23,17,58,4.30
2009,03,23,17,59,4.30
2009,03,23,18,00,4.30
2009,03,23,18,01,4.30
2009,03,23,18,02,4.30
2009,03,23,18,03,4.30
2009,03,23,18,04,4.30
2009,03,23,18,05,4.30
2009,03,23,18,06,4.30
2009,03,23,18,07,4.30
2009,03,23,18,08,4.30
2009,03,23,18,09,4.30
2009,03,23,18,10,4.30
2009,03,23,18,11,4.30
2009,03,23,18,12,4.30
2009,03,23,18,13,4.30
2009,03,23,18,14,4.30
2009,03,23,18,15,4.30
2009,03,23,18,16,4.30
2009,03,23,18,17,4.30
2009,03,23,18,18,4.30
2009,03,23,18,19,4.30
2009,03,23,18,20,4.30
2009,03,23,18,21,4.30
2009,03,23,18,22,4.30
2009,03,23,18,23,4.30
2009,03,23,18,24,4.20
2009,03,23,18,25,4.20
2009,03,23,18,26,4.20
2009,03,23,18,27,4.20
2009,03,23,18,28,4.20
2009,03,23,18,29,4.20
2009,03,23,18,30,4.20
2009,03,23,18,31,4.20
2009,03,23,18,32,4.20
2009,03,23,18,33,4.20
2009,03,23,18,34,4.20
2009,03,23,18,35,4.20
2009,03,23,18,36,4.20
2009,03,23,18,37,4.20
2009,03,23,18,38,4.20
2009,03,23,18,39,4.20
2009,03,23,18,40,4.20
2009,03,23,18,41,4.20
2009,03,23,18,42,4.20
2009,03,23,18,43,4.20
2009,03,23,18,44,4.20
2009,03,23,18,45,4.20
2009,03,23,18,46,4.20
2009,03,23,18,47,4.20
2009,03,23,18,48,4.20
2009,03,23,18,49,4.20
2009,03,23,18,50,4.20
2009,03,23,18,51,4.20
2009,03,23,18,52,4.20
2009,03,23,18,53,4.20
2009,03,23,18,54,4.20
2009,03,23,18,55,4.20
2009,03,23,18,56,4.20
2009,03,23,18,57,4.20
2009,03,23,18,58,4.20
2009,03,23,18,59,4.20
2009,03,23,19,00,4.20
2009,03,23,19,01,4.20
2009,03,23,19,02,4.20
2009,03,23,19,03,4.20
2009,03,23,19,04,4.10
2009,03,23,19,05,4.10
2009,03,23,19,06,4.10
2009,03,23,19,07,4.10
2009,03,23,19,08,4.10
2009,03,23,19,09,4.10
2009,03,23,19,10,4.10
2009,03,23,19,11,4.10
2009,03,23,19,12,4.10
2009,03,23,19,13,4.10
2009,03,23,19,14,4.10
2009,03,23,19,15,4.10
2009,03,23,19,16,4.10
2009,03,23,19,17,4.10
2009,03,23,19,18,4.10
2009,03,23,19,19,4.10
2009,03,23,19,20,4.10
2009,03,23,19,21,4.10
2009,03,23,19,22,4.10
2009,03,23,19,23,4.10
2009,03,23,19,24,4.10
2009,03,23,19,25,4.10
2009,03,23,19,26,4.10
2009,03,23,19,27,4.10
2009,03,23,19,28,4.00
2009,03,23,19,29,4.00
2009,03,23,19,30,4.00
2009,03,23,19,31,4.00
2009,03,23,19,32,4.00
2009,03,23,19,33,4.00
2009,03,23,19,34,4.00
2009,03,23,19,35,4.00
2009,03,23,19,36,4.00
2009,03,23,19,37,4.00
2009,03,23,19,38,4.00
2009,03,23,19,39,4.00
2009,03,23,19,40,4.00
2009,03,23,19,41,4.00
2009,03,23,19,42,3.90
2009,03,23,19,43,3.90
2009,03,23,19,44,3.90
2009,03,23,19,45,3.90
2009,03,23,19,46,3.90
2009,03,23,19,47,3.90
2009,03,23,19,48,3.90
2009,03,23,19,49,3.90
2009,03,23,19,50,3.90
2009,03,23,19,51,3.90
2009,03,23,19,52,3.90
2009,03,23,19,53,3.90
2009,03,23,19,54,3.90
2009,03,23,19,55,3.90
2009,03,23,19,56,3.90
2009,03,23,19,57,3.90
2009,03,23,19,58,3.80
2009,03,23,19,59,3.80
2009,03,23,20,00,3.80
2009,03,23,20,01,3.80
2009,03,23,20,02,3.80
2009,03,23,20,03,3.80
2009,03,23,20,04,3.80
2009,03,23,20,05,3.80
2009,03,23,20,06,3.80
2009,03,23,20,07,3.80
2009,03,23,20,08,3.80
2009,03,23,20,09,3.80
2009,03,23,20,10,3.80
2009,03,23,20,11,3.80
2009,03,23,20,12,3.80
2009,03,23,20,13,3.80
2009,03,23,20,14,3.80
2009,03,23,20,15,3.80
2009,03,23,20,16,3.80
2009,03,23,20,17,3.80
2009,03,23,20,18,3.80
2009,03,23,20,19,3.80
2009,03,23,20,20,3.80